Torna al catalogo

STARLINK-11123

AttivoComunicazioniVLEO
NORAD 59948·PAYLOAD·🇺🇸 United States

Lanciato Jun 5, 2024 da Cape Canaveral Space Force Station

Loading…

Prossimi Passaggi (prossime 24 ore)

TLE

AggiornatoSource: CelesTrak SupGP

Epoca: Sep 15, 2026, 02:50 UTC

1 59948C 24107D   26258.11854167 -.00196150  00000+0 -16083-2 0  2586
2 59948  53.1575  37.6461 0001261  96.0563 321.5040 15.69918286    10

Traccia STARLINK-11123 in tempo reale con AllMySat

Download on the App Store